Weather History for Keahole Point, HI

Change the Weather History Date:

Tuesday, February 18, 2014

  Actual Average Record
Temperature  
Mean Temperature 77 °F -  
Max Temperature 82 °F 79 °F 86 °F (1984)
Min Temperature 72 °F 66 °F 61 °F (1986)
Cooling Degree Days 12    
Growing Degree Days 27 (Base 50)    
Moisture  
Dew Point 68 °F    
Average Humidity 75    
Maximum Humidity 87    
Minimum Humidity 62    
Precipitation  
Precipitation 0.13 in - - ()
Sea Level Pressure  
Sea Level Pressure 29.90 in    
Wind  
Wind Speed 13 mph (North)    
Max Wind Speed 20 mph    
Max Gust Speed 26 mph    
Visibility 10 miles    
Events Rain    
Averages and records for this station are not official NWS values.
T = Trace of Precipitation, MM = Missing Value Source: NWS Daily Summary

Daily Weather History Graph

Daily Weather History Graph

Search for Another Location

Airport:

Trip Planner

Search our weather history database for the weather conditions in past years. The results will help you decide how hot, cold, wet, or windy it might be!

Date:

Astronomy

Feb. 18, 2014 Rise Set
Actual Time 6:51 AM HST 6:25 PM HST
Civil Twilight 6:28 AM HST 6:47 PM HST
Nautical Twilight 6:03 AM HST 7:13 PM HST
Astronomical Twilight 5:37 AM HST 7:39 PM HST
Moon 9:50 PM HST (2/18) 9:04 AM HST (2/18)
Length of Visible Light 12h 18m
Length of Day
11h 34m
Waning Gibbous, 86% of the Moon is Illuminated
Feb 18
Waning Gibbous
Feb 22
Last Quarter
Feb 28
New
Mar 8
First Quarter
Mar 16
Full

Hourly Weather History & Observations

Time (HST) Temp. Heat Index Dew Point Humidity Pressure Visibility Wind Dir Wind Speed Gust Speed Precip Events Conditions
12:53 AM 75.9 °F - 70.0 °F 82% 29.84 in 10.0 mi NNW 10.4 mph 19.6 mph N/A   Clear
1:53 AM 75.0 °F - 70.0 °F 84% 29.84 in 10.0 mi North 13.8 mph - N/A   Clear
2:53 AM 77.0 °F - 66.9 °F 71% 29.83 in 10.0 mi NNE 17.3 mph 25.3 mph N/A   Clear
3:37 AM 77.0 °F - 69.8 °F 78% 29.84 in 10.0 mi North 13.8 mph 21.9 mph N/A   Mostly Cloudy
3:53 AM 77.0 °F - 70.0 °F 79% 29.84 in 10.0 mi NW 19.6 mph 26.5 mph N/A   Mostly Cloudy
4:00 AM 77.0 °F - 69.8 °F 78% 29.84 in 10.0 mi NW 17.3 mph 26.5 mph N/A   Mostly Cloudy
4:53 AM 77.0 °F - 70.0 °F 79% 29.86 in 10.0 mi WNW 19.6 mph 25.3 mph N/A   Overcast
5:53 AM 77.0 °F - 70.0 °F 79% 29.88 in 10.0 mi NNW 12.7 mph - N/A   Overcast
6:21 AM 75.2 °F - 68.0 °F 78% 29.89 in 10.0 mi NNE 9.2 mph - N/A   Overcast
6:53 AM 75.0 °F - 69.1 °F 82% 29.91 in 10.0 mi NE 12.7 mph - 0.00 in Rain Light Rain
7:10 AM 73.4 °F - 68.0 °F 83% 29.91 in 2.5 mi NNE 9.2 mph - 0.11 in Rain Heavy Rain
7:17 AM 73.4 °F - 68.0 °F 83% 29.91 in 5.0 mi North 11.5 mph - 0.11 in Rain Light Rain
7:25 AM 73.4 °F - 68.0 °F 83% 29.91 in 8.0 mi NNE 17.3 mph - 0.12 in Rain Light Rain
7:53 AM 72.0 °F - 66.9 °F 84% 29.92 in 10.0 mi NNE 16.1 mph - 0.13 in Rain Light Rain
8:53 AM 73.9 °F - 69.1 °F 85% 29.94 in 10.0 mi North 10.4 mph - 0.00 in   Overcast
9:53 AM 75.9 °F - 72.0 °F 87% 29.96 in 10.0 mi North 15.0 mph - N/A   Scattered Clouds
10:53 AM 79.0 °F - 71.1 °F 77% 29.94 in 10.0 mi North 18.4 mph - N/A   Partly Cloudy
11:53 AM 80.1 °F 83.2 °F 70.0 °F 71% 29.92 in 10.0 mi North 17.3 mph - N/A   Overcast
12:53 PM 80.1 °F 82.7 °F 68.0 °F 67% 29.91 in 10.0 mi NNE 11.5 mph - N/A   Overcast
1:53 PM 81.0 °F 83.3 °F 66.9 °F 62% 29.89 in 10.0 mi North 10.4 mph - 0.00 in Rain Light Rain
2:53 PM 81.0 °F 83.8 °F 68.0 °F 65% 29.88 in 10.0 mi North 11.5 mph - 0.00 in   Overcast
3:53 PM 81.0 °F 84.4 °F 70.0 °F 69% 29.88 in 10.0 mi NW 11.5 mph - N/A   Scattered Clouds
4:53 PM 82.0 °F 84.9 °F 68.0 °F 62% 29.89 in 10.0 mi North 11.5 mph - N/A   Clear
5:53 PM 80.1 °F 82.9 °F 69.1 °F 69% 29.91 in 10.0 mi NNW 9.2 mph - N/A   Partly Cloudy
6:53 PM 78.1 °F - 68.0 °F 71% 29.93 in 10.0 mi North 10.4 mph - N/A   Scattered Clouds
7:53 PM 78.1 °F - 66.0 °F 66% 29.94 in 10.0 mi NNE 11.5 mph - N/A   Overcast
8:53 PM 77.0 °F - 66.0 °F 69% 29.96 in 10.0 mi NE 4.6 mph - N/A   Clear
9:53 PM 77.0 °F - 66.0 °F 69% 29.96 in 10.0 mi ENE 3.5 mph - N/A   Clear
10:53 PM 75.9 °F - 66.0 °F 71% 29.96 in 10.0 mi Calm Calm - N/A   Partly Cloudy
11:53 PM 75.0 °F - 64.9 °F 71% 29.96 in 10.0 mi SE 5.8 mph - N/A   Clear